#timestamp,LO_Frequency,Hit,StdDev 
1529359215.1,286046999.7,N
1529359235.9,286047000.6,N
1529359255.7,286047001.1,N
1529359275.6,286047000.9,N
1529359295.4,286047000.3,N
1529359315.2,286046999.9,N
1529359335.1,286046999.7,N
1529359336.0,286046999.7,N
1529359355.8,286047002.7,N
1529359375.6,286047004.1,N
1529359395.5,286047003.9,N
1529359415.3,286047001.3,N
1529359435.2,286047004.2,N
1529359455.9,286047003.8,N
1529359475.7,286046999.7,N
1529359495.6,286047001.8,N
1529359515.4,286047003.2,N
1529359535.2,286047003.0,N
1529359555.1,286047003.8,N
1529359556.0,286047003.8,N
1529359575.8,286047001.7,N
1529359595.7,286047003.6,N
1529359615.5,286047003.3,N
1529359635.3,286047004.1,N
1529359655.2,286047003.7,N
1529359675.0,286047005.8,Y
1529359675.9,286047005.8,P
1529359695.7,286047004.3,N
1529359715.6,286047001.3,N
1529359735.4,286047001.5,N
1529359755.3,286047002.2,N
1529359775.1,286046999.8,N
1529359776.0,286046999.8,N
1529359795.8,286047002.4,N
1529359815.7,286047000.5,N
1529359835.5,286047001.3,N
1529359855.3,286047003.7,N
1529359875.2,286047004.2,N
1529359895.0,286047001.8,N
1529359895.9,286047001.8,N
1529359915.8,286047002.3,N
1529359935.6,286047001.3,N
1529359955.4,286046999.7,N
1529359975.3,286047000.0,N
1529359995.1,286047000.9,N
1529360015.8,286046999.8,N
1529360035.7,286047000.8,N
1529360055.5,286047000.4,N
1529360075.4,286047001.5,N
1529360095.2,286046999.9,N
1529360115.0,286047000.0,N
1529360115.9,286047000.0,N
1529360135.8,286047001.0,N
1529360155.6,286047000.0,N
1529360175.4,286047002.5,N
1529360195.3,286047001.4,N
1529360215.1,286047004.3,N
1529360235.9,286047001.6,N
1529360255.7,286047002.5,N
1529360275.5,286047002.7,N
1529360295.4,286047003.9,N
1529360315.2,286047001.4,N
1529360335.1,286047001.5,N
1529360336.0,286047001.5,N
1529360355.8,286047001.8,N
1529360375.6,286047002.0,N
1529360395.5,286047003.9,N
1529360415.3,286047003.6,N
1529360435.1,286047006.0,Y
1529360455.9,286047002.2,P
1529360475.7,286047002.5,P
1529360495.6,286047000.1,N
1529360515.4,286047000.4,N
1529360535.2,286047000.4,N
1529360555.1,286047000.4,N
1529360556.0,286047000.4,N
1529360575.8,286047000.4,N
1529360595.6,286047000.1,N
1529360615.5,286047002.8,Y
1529360635.3,286046999.9,P
1529360655.2,286047000.4,N
1529360675.9,286047000.2,N
1529360695.7,286047000.5,N
1529360715.6,286047001.3,Y
1529360735.4,286047001.9,P
1529360755.3,286047002.8,P
1529360775.1,286047002.7,N
1529360776.0,286047002.7,N
1529360795.8,286047000.2,N
1529360815.7,286047000.4,N
1529360835.5,286046998.6,N
1529360855.3,286047002.4,N
1529360875.2,286047000.1,N
1529360895.0,286047000.8,N
1529360895.9,286047000.8,N
1529360915.8,286047000.0,N
1529360935.6,286046999.7,N
1529360955.4,286047001.9,N
1529360975.3,286047001.9,N
1529360995.1,286047000.1,N
1529361015.9,286047000.6,N
1529361035.7,286047000.5,N
1529361055.5,286047000.4,N
1529361075.4,286047000.0,N
1529361095.2,286047001.0,N
1529361115.0,286047000.1,N
1529361116.0,286047000.1,N
1529361135.8,286047000.5,N
1529361155.6,286046999.8,N
1529361175.5,286046999.7,N
1529361195.3,286047000.1,N
1529361215.1,286047000.0,N
1529361235.9,286047002.5,N
1529361255.7,286046999.7,N
1529361275.6,286047000.2,N
1529361295.4,286047000.0,N
1529361315.2,286047000.0,N
1529361335.1,286047001.2,N
1529361336.0,286047001.2,N
1529361355.8,286047000.2,N
1529361375.6,286046999.7,N
1529361395.5,286047002.5,Y
1529361415.3,286047000.7,P
1529361435.2,286046998.7,P
1529361455.9,286046998.6,N
1529361475.7,286046998.8,N
1529361495.6,286046998.4,N
1529361515.4,286047002.8,N
1529361535.2,286047000.8,N
1529361555.1,286046998.6,N
1529361556.0,286046998.6,N
1529361575.8,286046998.4,N
1529361595.7,286046998.5,N
1529361615.5,286046998.2,N
1529361635.3,286046998.3,N
1529361655.2,286046996.5,N
1529361675.0,286046996.6,N
1529361675.9,286046996.6,N
1529361695.8,286046998.9,N
1529361715.6,286046999.5,N
1529361735.4,286046999.2,N
1529361755.3,286046999.2,N
1529361775.1,286046999.6,N
1529361795.8,286046996.9,N
1529361815.7,286046996.9,N
1529361835.5,286046996.6,N
1529361855.4,286046999.4,N
1529361875.2,286046999.1,N
1529361895.0,286046998.7,N
1529361895.9,286046998.7,N
1529361915.8,286046996.5,N
1529361935.6,286046997.7,N
1529361955.4,286046996.5,N
1529361975.3,286046998.7,N
1529361995.1,286046999.3,N
1529362015.9,286046997.0,N
1529362035.7,286046999.0,N
1529362055.5,286046999.5,N
1529362075.4,286046998.8,N
1529362095.2,286047000.8,N
1529362115.0,286047000.6,N
1529362115.9,286047000.6,N
1529362135.8,286046998.3,N
1529362155.6,286046998.3,N
1529362175.5,286047001.0,N
1529362195.3,286046998.1,N
1529362215.1,286047001.2,N
1529362235.9,286046998.7,N
1529362255.7,286046999.4,N
1529362275.5,286046996.7,N
1529362295.4,286046999.5,N
1529362315.2,286046999.2,N
1529362335.0,286046998.9,N
1529362336.0,286046998.9,N
1529362355.8,286047000.9,N
1529362375.6,286047000.9,N
1529362395.5,286046999.6,N
1529362415.3,286046997.1,N
1529362435.1,286046999.0,N
1529362455.9,286046998.9,N
1529362475.7,286046999.0,N
1529362495.5,286047001.1,N
1529362515.4,286046998.9,N
1529362535.2,286046998.3,N
1529362555.1,286047000.6,N
1529362575.3,286047000.5,N
1529362595.1,286046998.9,N
1529362615.9,286046999.4,N
1529362635.7,286047000.8,N
1529362655.5,286047000.9,N
1529362675.4,286046998.3,N
1529362695.2,286046998.1,N
1529362715.0,286046998.3,N
1529362715.9,286046998.3,N
1529362735.8,286046998.1,N
1529362755.6,286046998.8,N
1529362775.5,286046998.5,N
1529362795.3,286046998.5,N
